x

Smith Island, Wa (sisw1) Weather Station

7:00 - Wed 7th Dec 2016 All times are PST. -8 hours from GMT.

  • Wind
    8mph, 10mph gusts
  • Ar Temp 30°f
  • Sea Pressure 1031.2mb
  • Smith Island, Wa
  • Smith Island, Wa

More Historic Weather Station data

Upgrade to MSW Pro to gain access to the past 30 days of data for over 8000 Wavebouys and Weather Stations around the globe.

Join Pro

Comparision Forecast

View Surf forecast
   
Qua 12/07 7:00 8 10 mph 1031.2mb 30f
6:00 10 14 mph 1031.1mb 30f
5:00 10 14 mph 1031mb 30f
4:00 20 23 mph 1030.6mb 31f
3:00 28 30 mph 1030mb 31f
2:00 29 31 mph 1029.7mb 31f
1:00 25 28 mph 1029.5mb 31f
12:00 23 26 mph 1029.1mb 32f
Ter 12/06 11:00 26 29 mph 1028.5mb 33f
10:00 24 26 mph 1027.8mb 34f
9:00 22 23 mph 1027.2mb 34f
8:00 18 21 mph 1026.6mb 35f
7:00 20 21 mph 1026.3mb 35f
6:00 20 23 mph 1026mb 36f
4:00 17 20 mph 1025mb 36f
3:00 21 24 mph 1024.2mb 37f
2:00 17 20 mph 1023.5mb 37f
1:00 18 21 mph 1023mb 37f
12:00 14 16 mph 1022.7mb 37f
11:00 15 17 mph 1022.4mb 37f
10:00 13 16 mph 1021.9mb 37f
9:00 20 22 mph 1021mb 36f
8:00 20 23 mph 1020.3mb 36f
7:00 18 21 mph 1019.6mb 37f
6:00 20 23 mph 1019.2mb 37f
5:00 18 22 mph 1018.6mb 37f
4:00 11 16 mph 1018.1mb 37f
3:00 9 13 mph 1017.9mb 37f
2:00 10 13 mph 1017.2mb 37f
1:00 11 13 mph 1017.1mb 38f
12:00 11 14 mph 1017mb 38f
Seg 12/05 11:00 13 14 mph 1016.9mb 38f
10:00 13 14 mph 1016.8mb 38f
9:00 14 16 mph 1016.5mb 38f
8:00 11 15 mph 1016.3mb 38f
7:00 13 15 mph 1016.4mb 37f
6:00 9 11 mph 1016.4mb 38f
5:00 10 14 mph 1016.2mb 40f
4:00 14 16 mph 1016mb 40f
3:00 16 20 mph 1015.9mb 41f
2:00 14 16 mph 1016.3mb 41f
1:00 17 18 mph 1016.6mb 42f
12:00 18 21 mph 1016.7mb 41f
11:00 22 24 mph 1016.9mb 40f
10:00 21 23 mph 1016.8mb 40f
9:00 17 20 mph 1017.1mb 38f
8:00 22 24 mph 1016.9mb 39f
7:00 25 29 mph 1017.1mb 39f
6:00 21 22 mph 1017mb 39f
5:00 21 23 mph 1017.5mb 38f
4:00 21 24 mph 1018.3mb 39f
3:00 21 23 mph 1018.8mb 39f
2:00 21 22 mph 1019.3mb 39f
1:00 15 17 mph 1019.3mb 42f
12:00 15 21 mph 1019.6mb 42f
Dom 12/04 11:00 17 21 mph 1019.7mb 42f
10:00 15 24 mph 1019.4mb 43f
9:00 18 25 mph 1018.9mb 43f
8:00 26 30 mph 1018.6mb 44f
7:00 26 33 mph 1018.5mb 44f
6:00 29 32 mph 1018.3mb 45f
5:00 28 32 mph 1018.1mb 45f
4:00 11 14 mph 1018.3mb 45f
3:00 9 13 mph 1018mb 45f
2:00 10 14 mph 1017.7mb 45f
1:00 11 15 mph 1017.6mb 44f
12:00 16 22 mph 1017.5mb 45f
11:00 16 22 mph 1017.1mb 44f
10:00 17 20 mph 1016.7mb 44f
9:00 15 21 mph 1016mb 43f
8:00 13 16 mph 1015.7mb 42f
7:00 17 21 mph 1015.2mb 43f
6:00 32 36 mph 1014.5mb 44f
5:00 33 38 mph 1014.5mb 44f
4:00 31 46 mph 1014mb 44f
3:00 25 34 mph 1015mb 44f
2:00 20 31 mph 1015.3mb 44f
1:00 23 37 mph 1016mb 44f
12:00 22 28 mph 1016.8mb 44f
Sáb 12/03 11:00 26 31 mph 1017.4mb 44f
10:00 15 28 mph 1018mb 45f
9:00 22 29 mph 1018.2mb 45f
8:00 16 21 mph 1018.7mb 45f
7:00 9 11 mph 1019.6mb 45f
6:00  -  2 mph 1019.8mb 46f
5:00 3 5 mph 1020.7mb 46f